Location: Dead Woman Crossing
(43.5369°N, 106.3228°W)
Time: 23:37:53
(UTC+00:00)

NANOSAT C BR1 - Pass Details

Date: 03 July 2022
Orbit: 584 x 599 km, 98.0° (Epoch: 18 August)

Event Time Altitude Azimuth Distance (km) Brightness Sun altitude
Rises 09:29:54 0° 9° (N) 2,853 ? -16.1°
Reaches altitude 10° 09:32:06 10° 7° (N) 1,948 ? -15.9°
Maximum altitude 09:36:17 64° 286° (WNW) 667 ? -15.5°
Enters shadow 09:38:27 27° 212° (SSW) 1,160 ? -15.3°
